Voltar ao catálogo

ISS

ZVEZDA

AtivoCiênciaVLEO
NORAD 26400·PAYLOAD·🇷🇺 Russia

Lançado Jul 12, 2000 de Baikonur Cosmodrome

Loading…

Próximas Passagens (próximas 24 horas)

TLE

AtualizadoSource: Space-Track

Época: Sep 14, 2026, 08:04 UTC

1 26400U 00037A   26257.33674862  .00004921  00000-0  97059-4 0  9993
2 26400  51.6309 218.8707 0004933 140.1115 220.0237 15.49109585586386

Acompanhe ISS em tempo real com AllMySat

Download on the App Store